BEIDOU 5 (C06)

Last updated on Jan. 18, 2020, 4:39 a.m. UTC

1 36828U 10036A   20017.37875090 -.00000081  00000-0  10000-3 0  9990
2 36828  54.1546 184.4039 0085391 231.8930 312.5736  1.00252736 34724
UTC
Height (km)
Latitude
Longitude
Inclination
Orbital Period
UTC large
Height (km)
Speed (km/s)
/
Latitude / Longitude
Inclination (degrees)
Orbital Period (minutes)
Azimuth
Elevation
Range (km)
Doppler Factor
iOS Compass Heading
iOS Angle

Next 30 passes for location: Hong Kong

Rise time Rise Azimuth (degrees) Set time Set Azimuth (degrees) Duration Max altitude (degrees)

No matching passes for this satellites